Flag for Germany Weather past 2 weeks in Koblenz, Rhineland-Palatinate, Germany

Now
55 °F

Cool.


Feels Like: 53 °F
Forecast: 45 / 71 °F
Wind: 8 mph from Northeast

Location: Buechel


UV Index: 3 (Moderate)

Visibility: N/A


Pressure: 29.65 "Hg

Humidity: 67%

Dew point: 45 °F

Location of KoblenzLocation

Historic Weather in Koblenz

°F

Koblenz temperature yesterday

Maximum temperature yesterday: 61 °F (at 3:20 PM)
Minimum temperature yesterday: 48 °F (at 3:20 AM)
Average temperature yesterday: 54 °F

Past Weeks' High & Low Weather Summary

 TemperatureHumidityPressure
High66 °F (Apr 7, 4:20 PM)100% (Apr 9, 4:20 AM)30.39 "Hg (Apr 9, 4:20 AM)
Low34 °F (Apr 16, 3:20 AM)27% (Apr 17, 6:20 PM)29.65 "Hg (Apr 21, 5:20 AM)
Average50 °F66%30.05 "Hg
* Reported Apr 6 10:20 AM — Apr 21 10:20 AM, Koblenz, Weather by CustomWeather, © 2014

Note: Actual official high and low records may vary slightly from our data, if they occured in-between our weather recording intervals... More about our weather records

Advertising

Historic Weather Conditions — Data for Previous 24 hours

 ConditionsComfort  
Time TempWeatherWind HumidityBarometerVisibility
10:20 AM
Apr 21
55 °FCool.6 mph63%29.65 "HgN/A
9:20 AM52 °FCool.7 mph67%29.65 "HgN/A
8:20 AM50 °FCool.6 mph71%29.65 "HgN/A
7:20 AM45 °FQuite cool.8 mph81%29.65 "HgN/A
6:20 AM46 °FCool.6 mph76%29.65 "HgN/A
5:20 AM46 °FCool.7 mph71%29.65 "HgN/A
4:20 AM46 °FCool.9 mph76%29.68 "HgN/A
3:20 AM50 °FCool.10 mph67%29.68 "HgN/A
2:20 AM52 °FCool.10 mph62%29.68 "HgN/A
1:20 AM52 °FCool.8 mph62%29.71 "HgN/A
12:20 AM54 °FCool.8 mph63%29.71 "HgN/A
11:20 PM
Apr 20
54 °FCool.8 mph58%29.71 "HgN/A
10:20 PM55 °FRefreshingly cool.8 mph55%29.71 "HgN/A
9:20 PM57 °FRefreshingly cool.8 mph51%29.68 "HgN/A
8:20 PM57 °FRefreshingly cool.5 mph51%29.68 "HgN/A
7:20 PM59 °FRefreshingly cool.6 mph48%29.68 "HgN/A
6:20 PM61 °FRefreshingly cool.9 mph45%29.68 "HgN/A
5:20 PM61 °FRefreshingly cool.9 mph52%29.68 "HgN/A
4:20 PM61 °FRefreshingly cool.8 mph52%29.68 "HgN/A
3:20 PM61 °FRefreshingly cool.12 mph48%29.68 "HgN/A
2:20 PM59 °FRefreshingly cool.12 mph55%29.71 "HgN/A
1:20 PM59 °FCool.12 mph63%29.71 "HgN/A
12:20 PM57 °FCool.12 mph63%29.71 "HgN/A
Weather by CustomWeather, © 2014

See weather overview